AirNav   TITAN Aviation Fuels
 
 1483 users online  

MU94 Galmey Heliport
Galmey, Missouri, USA

GOING TO GALMEY?


FAA INFORMATION EFFECTIVE 16 JUNE 2022

Location

FAA Identifier: MU94
Lat/Long: 37-53-35.6900N 093-21-43.7000W
37-53.594833N 093-21.728333W
37.8932472,-93.3621389
(estimated)
Elevation: 968 ft. / 295 m (estimated)
Variation: 04E (1990)
From city: 7 miles S of GALMEY, MO
Time zone: UTC -5 (UTC -6 during Standard Time)
Zip code: 65779

Heliport Operations

Heliport use: Private use, MEDICAL USE.
Activation date: 10/1991
Control tower: no
ARTCC: KANSAS CITY CENTER
FSS: COLUMBIA FLIGHT SERVICE STATION
Attendance: CONTINUOUS
Wind indicator: lighted
Segmented circle: no
Lights: FOR PERIMETER LGTS CALL 417-282-5365.

Heliport Services

Runway Information

Helipad H1

Dimensions: 40 x 40 ft. / 12 x 12 m
Surface: concrete
Runway edge lights: PERI
Latitude: 37-53.594833N
Longitude: 093-21.728333W
Elevation: 968.0 ft.
Traffic pattern: leftleft

Heliport Ownership and Management from official FAA records

Ownership: Publicly-owned
Owner: GALMEY FIRE DEPARTMENT
21208 HWY 254
WHEATLAND, MO 65779
Phone (417) 282-5365
Manager: WILBER ELLIS, BOARD DIRECTOR
P.O. BOX 276
WHEATLAND, MO 65779
Phone (417) 282-5365

Additional Remarks

OWNER DESIRES HELIPAD NOT BE CHARTED.
FOR CD CTC SPRINGFIELD APCH AT 417-868-5620/5619.

Instrument Procedures

There are no published instrument procedures at MU94.

Some nearby airports with instrument procedures:

M17 - Bolivar Municipal Airport (18 nm S)
MO3 - Stockton Municipal Airport (26 nm SW)
KRAW - Warsaw Municipal Airport (27 nm N)
KGLY - Clinton Regional Airport (31 nm NW)
KOZS - Camdenton Memorial-Lake Regional Airport (32 nm E)
 
Loc | Ops | Rwys | IFR | FBO | Links
Com | Nav | Svcs | Stats | Notes
Area around MU94 (Galmey Heliport)
 
Road maps at: MapQuest Bing Google
 
Aerial photo
No photo
 
Sectional chart

 
Airport distance calculator
Flying to Galmey Heliport? Find the distance to fly.

From to MU94

Sunrise and sunset
Times for 01-Jul-2022
 Local
(UTC-5)
 Zulu
(UTC)
Morning civil twilight05:2510:25
Sunrise05:5610:56
Sunset20:3901:39
Evening civil twilight21:1002:10

Current date and time
Zulu (UTC)  01-Jul-2022 16:53:19
Local (UTC-5)  01-Jul-2022 11:53:19
 
METAR
KRAW 
27nm N 
011635Z AUTO 29005KT 10SM CLR 30/20 A3005 RMK AO2 T02970197
KGLY 
32nm NW 
011635Z AUTO VRB04KT 10SM CLR 30/21 A3002 RMK AO2
KOZS 
32nm E 
011635Z AUTO 28007KT 10SM CLR 30/18 A3005 RMK AO2
TAF
KSGF 
40nm S 
011120Z 0112/0212 18008KT P6SM SKC FM011400 21008KT P6SM FEW050 SCT250 FM020000 VRB05KT P6SM SCT050 BKN250 FM020600 12005KT P6SM SCT250
NOTAMs
Click for the latest NOTAMs
NOTAMs are issued by the DoD/FAA and will open in a separate window not controlled by AirNav.

 

 
 

Would you like to see your business listed on this page?

 If your business provides an interesting product or service to pilots, flight crews, aircraft, or users of the Galmey Heliport, you should consider listing it here.  To start the listing process, click on the button below
 
Add a business
 

Other Pages about Galmey Heliport

Update a link
 
Copyright © AirNav, LLC. All rights reserved. Privacy Policy  Contact